TimeMST,TemperatureF,Dew PointF,Humidity,Sea Level PressureIn,VisibilityMPH,Wind Direction,Wind SpeedMPH,Gust SpeedMPH,PrecipitationIn,Events,Conditions,WindDirDegrees,DateUTC
12:56 AM,31.1,22.1,69,30.11,10.0,SSE,12.7,-,N/A,,Overcast,150,2013-02-05 07:56:00
1:56 AM,31.1,21.0,66,30.07,10.0,SSE,12.7,-,N/A,,Overcast,150,2013-02-05 08:56:00
2:56 AM,31.1,21.0,66,30.07,10.0,South,10.4,-,N/A,,Overcast,170,2013-02-05 09:56:00
3:56 AM,30.0,24.1,79,30.06,4.0,SSE,9.2,-,0.00,Snow,Light Snow,150,2013-02-05 10:56:00
4:07 AM,30.2,24.8,80,30.05,2.0,SE,9.2,-,0.00,Snow,Light Snow,140,2013-02-05 11:07:00
4:34 AM,30.2,26.6,86,30.05,4.0,SE,8.1,-,0.00,Snow,Light Snow,130,2013-02-05 11:34:00
4:45 AM,30.2,26.6,86,30.05,10.0,SE,9.2,-,0.00,Snow,Light Snow,140,2013-02-05 11:45:00
4:56 AM,30.0,26.1,85,30.08,10.0,SSE,9.2,-,0.00,Snow,Light Snow,150,2013-02-05 11:56:00
5:49 AM,30.2,24.8,80,30.05,3.0,South,9.2,-,0.00,Snow,Light Snow,170,2013-02-05 12:49:00
5:56 AM,30.0,26.1,85,30.08,1.2,SSE,9.2,-,0.00,Snow,Light Snow,150,2013-02-05 12:56:00
5:58 AM,28.4,26.6,93,30.04,1.8,SE,8.1,-,0.00,Snow,Light Snow,140,2013-02-05 12:58:00
6:01 AM,28.4,26.6,93,30.04,4.0,SE,9.2,-,0.00,Snow,Light Snow,140,2013-02-05 13:01:00
6:13 AM,30.2,26.6,86,30.03,10.0,SE,8.1,-,0.00,Snow,Light Snow,130,2013-02-05 13:13:00
6:56 AM,32.0,25.2,76,30.06,10.0,SSE,9.2,-,0.00,,Overcast,160,2013-02-05 13:56:00
7:56 AM,32.0,24.1,73,30.06,10.0,South,5.8,-,0.00,,Overcast,180,2013-02-05 14:56:00
8:56 AM,32.0,24.1,73,30.06,10.0,Calm,Calm,-,N/A,,Overcast,0,2013-02-05 15:56:00
9:56 AM,34.0,23.0,64,30.02,10.0,SE,6.9,-,N/A,,Overcast,140,2013-02-05 16:56:00
10:56 AM,34.9,20.1,55,30.01,10.0,SE,6.9,-,N/A,,Mostly Cloudy,130,2013-02-05 17:56:00
11:56 AM,34.9,23.0,62,29.98,10.0,SSW,10.4,-,0.01,,Mostly Cloudy,200,2013-02-05 18:56:00
12:56 PM,36.9,20.1,51,29.94,10.0,SSW,4.6,-,N/A,,Scattered Clouds,210,2013-02-05 19:56:00
1:56 PM,37.9,21.0,51,29.90,10.0,SSW,8.1,-,0.01,,Clear,200,2013-02-05 20:56:00
2:56 PM,36.9,20.1,51,29.88,10.0,SSW,11.5,-,N/A,,Clear,200,2013-02-05 21:56:00
3:56 PM,36.9,19.0,49,29.88,10.0,South,6.9,-,N/A,,Clear,170,2013-02-05 22:56:00
4:56 PM,36.9,17.1,45,29.87,10.0,SE,3.5,-,N/A,,Clear,130,2013-02-05 23:56:00
5:56 PM,31.1,16.2,54,29.88,10.0,SE,4.6,-,N/A,,Clear,140,2013-02-06 00:56:00
6:56 PM,25.2,17.1,71,29.89,10.0,East,6.9,-,N/A,,Clear,90,2013-02-06 01:56:00
7:56 PM,32.0,18.1,57,29.86,10.0,SE,8.1,-,N/A,,Partly Cloudy,140,2013-02-06 02:56:00
8:56 PM,31.1,17.1,56,29.87,10.0,SSE,5.8,-,N/A,,Scattered Clouds,150,2013-02-06 03:56:00
9:56 PM,27.1,15.1,60,29.87,10.0,ESE,6.9,-,N/A,,Clear,110,2013-02-06 04:56:00
10:56 PM,27.1,15.1,60,29.87,10.0,SE,5.8,-,N/A,,Clear,130,2013-02-06 05:56:00
11:56 PM,28.0,16.2,61,29.86,10.0,South,10.4,-,N/A,,Clear,190,2013-02-06 06:56:00